Wind_Speed
110 116 121 115 108 102 100 95 93 93 94 89 94 95 97 92 82 76 76 75 67 68 72 70 67 68 58 56 47 46 47 46
101 110 115 118 118 113 109 101 97 95 96 94 99 97 97 95 92 82 76 75 72 74 77 70 73 73 65 61 52 54 44 46
92 94 108 115 116 119 115 113 102 98 99 98 97 97 99 97 94 94 83 78 77 75 79 71 75 74 73 65 61 54 47 49
86 90 96 107 118 117 123 118 113 105 103 102 101 100 101 103 94 91 95 86 83 75 82 75 73 74 78 72 69 57 53 53
78 80 86 98 109 119 119 124 121 113 107 106 106 103 108 111 105 94 95 95 87 84 88 79 77 75 81 76 71 62 59 62
66 72 74 81 99 110 117 123 124 121 116 110 109 107 108 113 109 101 95 96 92 89 85 91 83 80 80 78 77 65 65 67
49 60 67 72 84 103 114 116 128 128 124 118 115 113 113 111 113 106 102 99 95 91 91 94 83 82 84 78 78 71 68 68
36 48 58 66 72 86 109 116 120 134 132 126 122 117 117 113 110 110 101 100 98 97 91 91 94 84 85 80 81 75 76 76
25 36 48 58 66 74 91 110 119 128 138 135 127 125 119 113 113 114 107 101 100 98 91 94 97 95 86 83 82 83 77 76
16 24 37 48 58 65 76 93 110 123 135 141 136 128 127 117 117 113 109 104 103 102 97 94 87 98 96 91 83 89 86 80
16 15 24 35 48 58 65 79 96 114 125 140 143 137 130 128 119 118 116 109 106 107 104 100 97 95 100 94 94 92 87 83
25 16 13 23 35 47 55 65 83 104 119 129 143 143 137 132 129 121 116 115 109 106 108 105 100 98 104 101 97 96 92 83
33 23 14 12 24 36 47 55 67 90 106 119 133 144 144 138 135 130 123 118 114 111 106 103 100 104 105 108 100 100 99 90
42 29 19 11 12 24 34 44 53 70 92 107 121 134 146 145 142 138 133 125 121 116 112 107 102 107 105 107 107 103 100 99
49 37 25 16 8 12 23 34 44 54 71 92 108 122 135 145 147 145 141 133 129 126 117 111 108 109 107 106 109 108 106 103
63 47 34 24 14 6 12 23 36 46 54 71 93 109 122 137 146 148 147 142 137 132 125 119 115 112 111 108 108 111 110 107
76 60 46 32 23 13 5 12 24 36 46 57 73 93 110 123 136 147 151 149 145 138 131 128 123 120 119 116 110 110 113 114
94 76 59 45 32 24 13 5 13 25 37 48 59 76 93 110 122 136 147 151 150 149 140 134 132 126 124 122 120 115 114 115
102 95 78 60 47 34 23 14 5 14 25 36 46 60 77 93 107 120 133 143 152 152 147 142 137 135 131 128 128 125 123 119
Wind_Direction
233 234 233 231 228 225 225 222 222 222 223 220 217 225 227 224 222 224 221 222 222 224 216 216 212 204 207 214 211 228 228 224
234 231 231 232 226 223 222 222 221 222 222 219 218 220 228 223 221 220 218 219 216 217 213 216 214 205 202 210 212 223 223 225
241 236 230 228 229 223 220 219 220 221 221 218 216 218 224 228 224 222 217 215 218 221 212 213 217 206 204 205 215 216 224 221
246 238 233 229 226 225 220 218 217 218 221 219 216 216 224 225 224 222 221 218 220 220 212 210 218 212 207 207 214 214 223 223
249 246 235 231 227 225 221 218 217 217 217 218 218 216 222 225 224 222 222 220 221 221 216 209 219 214 208 209 213 214 222 228
243 245 242 232 229 226 223 218 215 215 215 216 217 213 221 225 224 223 223 223 222 217 218 211 215 216 210 210 213 216 219 225
243 239 238 235 226 224 224 220 215 215 215 214 216 215 217 224 225 224 225 224 221 218 221 216 209 217 211 211 211 213 217 217
247 241 236 233 229 222 222 220 216 215 214 215 214 213 213 221 223 224 222 222 218 218 219 216 211 214 213 211 209 213 218 221
259 245 239 234 231 224 222 221 217 215 213 215 214 214 212 216 222 223 221 221 217 217 218 218 216 213 216 211 212 212 216 222
294 260 244 237 232 228 222 221 219 216 214 213 215 211 214 213 218 221 222 219 217 217 217 218 216 215 215 216 212 212 220 223
331 295 259 240 235 231 226 220 218 218 216 214 213 216 213 215 216 221 222 219 218 217 217 219 220 219 218 215 213 212 216 222
359 339 291 251 236 233 229 223 217 217 218 216 214 215 216 214 216 219 221 220 217 218 217 219 221 222 221 215 216 214 214 221
9 359 335 279 244 235 230 224 218 217 217 218 216 216 216 216 216 216 220 223 218 217 218 220 220 221 219 219 214 216 214 215
14 8 357 324 261 238 231 228 222 218 218 217 218 218 217 217 216 217 217 222 222 219 218 219 219 220 219 219 217 216 217 216
19 16 9 351 315 248 233 227 223 220 218 218 218 218 219 218 218 218 218 219 223 224 221 219 217 220 219 219 220 220 216 219
20 22 20 12 353 303 241 229 225 221 218 217 218 219 219 220 219 219 220 219 222 224 223 221 219 219 220 221 221 221 221 217
22 21 25 24 17 359 289 234 226 225 221 216 217 219 220 219 221 220 220 221 221 222 223 223 221 221 222 222 222 224 224 223
21 22 22 26 28 20 6 288 234 227 225 220 216 218 220 221 221 222 222 222 223 223 223 224 224 224 224 224 225 227 226 227
24 23 22 23 24 30 23 8 292 235 227 227 223 219 219 221 222 222 223 223 223 224 225 224 224 224 225 226 226 227 227 228
Height
10454 10463 10484 10505 10523 10534 10543 10556 10571 10583 10595 10609 10623 10631 10645 10662 10678 10688 10700 10712 10722 10729 10732 10740 10748 10758 10766 10774 10780 10784 10791 10797
10420 10435 10452 10468 10488 10504 10517 10534 10550 10563 10576 10590 10604 10618 10623 10642 10658 10672 10684 10697 10709 10717 10721 10729 10735 10742 10756 10762 10770 10772 10784 10789
10399 10409 10424 10437 10452 10472 10489 10507 10527 10543 10555 10570 10582 10597 10608 10621 10641 10656 10670 10681 10693 10703 10711 10716 10724 10736 10745 10754 10760 10767 10774 10780
10363 10379 10395 10410 10421 10437 10459 10481 10502 10521 10533 10549 10564 10577 10591 10604 10621 10636 10650 10664 10678 10689 10699 10707 10711 10724 10735 10743 10751 10758 10763 10770
10338 10351 10368 10384 10396 10411 10431 10455 10477 10496 10511 10527 10545 10559 10571 10581 10602 10619 10632 10646 10660 10674 10685 10694 10699 10710 10724 10733 10741 10746 10753 10755
10322 10328 10341 10358 10374 10389 10406 10429 10452 10471 10487 10505 10522 10538 10551 10561 10581 10601 10614 10628 10642 10657 10668 10680 10688 10699 10712 10720 10728 10736 10741 10745
10304 10308 10314 10328 10343 10361 10377 10402 10426 10443 10461 10480 10499 10515 10531 10540 10559 10580 10596 10610 10624 10638 10651 10664 10675 10687 10698 10708 10715 10724 10730 10736
10289 10291 10295 10303 10317 10332 10345 10368 10394 10416 10436 10454 10475 10492 10510 10520 10536 10557 10576 10591 10606 10620 10634 10646 10660 10673 10684 10693 10702 10712 10717 10724
10279 10279 10282 10288 10297 10312 10325 10343 10366 10385 10408 10430 10449 10470 10487 10502 10513 10536 10555 10572 10588 10602 10616 10631 10643 10657 10668 10679 10690 10699 10705 10711
10271 10271 10272 10276 10282 10291 10306 10321 10343 10360 10379 10404 10425 10448 10466 10484 10495 10512 10533 10551 10568 10584 10598 10613 10626 10639 10652 10663 10674 10684 10692 10699
10266 10265 10264 10267 10271 10277 10288 10303 10320 10337 10354 10377 10401 10424 10444 10463 10479 10490 10511 10531 10547 10564 10579 10593 10608 10623 10634 10646 10656 10667 10678 10686
10263 10260 10259 10259 10262 10266 10275 10287 10301 10313 10332 10354 10378 10399 10421 10441 10460 10471 10487 10509 10526 10542 10558 10573 10590 10603 10616 10628 10640 10652 10662 10671
10262 10257 10254 10254 10255 10257 10263 10271 10286 10298 10314 10336 10357 10377 10397 10418 10438 10456 10466 10483 10506 10522 10538 10555 10570 10584 10598 10610 10621 10633 10644 10654
10264 10257 10252 10250 10250 10251 10255 10263 10274 10288 10301 10316 10336 10355 10375 10395 10415 10432 10450 10462 10480 10501 10519 10536 10550 10566 10579 10590 10602 10615 10626 10636
10270 10260 10253 10249 10247 10248 10251 10256 10263 10273 10286 10301 10316 10335 10353 10372 10390 10410 10428 10444 10459 10477 10498 10516 10532 10547 10560 10572 10584 10596 10608 10618
10274 10265 10255 10249 10246 10246 10248 10252 10256 10262 10273 10286 10299 10314 10332 10351 10370 10390 10407 10424 10438 10454 10479 10497 10513 10528 10541 10554 10566 10576 10588 10599
10286 10272 10262 10253 10248 10245 10246 10248 10252 10256 10263 10272 10284 10297 10311 10328 10347 10364 10383 10400 10416 10434 10456 10474 10491 10506 10520 10535 10546 10555 10567 10577
10299 10283 10270 10260 10252 10247 10246 10246 10248 10252 10256 10262 10271 10282 10294 10308 10324 10341 10360 10378 10396 10415 10435 10451 10467 10485 10499 10513 10525 10535 10545 10559
10312 10294 10280 10270 10260 10252 10248 10246 10246 10248 10251 10257 10264 10272 10280 10291 10304 10320 10338 10356 10374 10390 10409 10426 10444 10461 10477 10489 10500 10512 10523 10535